CW1575 Weather Reports


Display with metric or nautical units.
time (UTC)temp
F
wind
direction
speed
MPH
gust
MPH
rain 1hr
in
rain 24hr
in
rain mn
in
humidity
%
barometer
mb
20141025215529 80 141 3.0 10.0 0.00 0.00 0.00 14 1018.7
20141025214529 81 121 3.0 10.0 0.00 0.00 0.00 14 1019.1
20141025213533 81 123 3.0 7.0 0.00 0.00 0.00 14 1019.4
20141025212530 81 110 5.0 10.0 0.00 0.00 0.00 14 1019.5
20141025211530 81 92 2.0 9.0 0.00 0.00 0.00 15 1019.8
20141025210529 81 120 2.0 12.0 0.00 0.00 0.00 14 1019.7
20141025205529 81 104 3.0 7.0 0.00 0.00 0.00 15 1019.8
20141025204529 80 108 4.0 9.0 0.00 0.00 0.00 14 1020.0
20141025203529 81 109 6.0 9.0 0.00 0.00 0.00 15 1020.4
20141025202529 81 76 3.0 9.0 0.00 0.00 0.00 14 1020.5
20141025201530 81 109 2.0 9.0 0.00 0.00 0.00 15 1020.9
20141025200530 80 117 3.0 9.0 0.00 0.00 0.00 15 1020.8
20141025195530 79 126 3.0 8.0 0.00 0.00 0.00 14 1021.0
20141025194529 80 130 3.0 7.0 0.00 0.00 0.00 15 1021.2
20141025193530 79 152 3.0 9.0 0.00 0.00 0.00 15 1021.6
20141025192530 80 119 4.0 12.0 0.00 0.00 0.00 15 1021.7
20141025191529 80 118 2.0 7.0 0.00 0.00 0.00 17 1022.0
20141025190529 79 122 3.0 7.0 0.00 0.00 0.00 17 1022.6
20141025185531 78 195 2.0 9.0 0.00 0.00 0.00 20 1022.8
20141025184529 76 135 2.0 7.0 0.00 0.00 0.00 19 1022.8
20141025183529 75 145 3.0 6.0 0.00 0.00 0.00 18 1023.2
20141025182529 73 175 3.0 8.0 0.00 0.00 0.00 20 1023.4
20141025181529 72 154 3.0 5.0 0.00 0.00 0.00 19 1023.5
20141025180529 70 173 3.0 6.0 0.00 0.00 0.00 21 1023.6
20141025175529 69 133 2.0 7.0 0.00 0.00 0.00 22 1023.8
20141025174529 68 130 2.0 6.0 0.00 0.00 0.00 23 1023.8
20141025173529 67 108 2.0 3.0 0.00 0.00 0.00 26 1024.0
20141025172529 66 167 2.0 5.0 0.00 0.00 0.00 27 1024.4
20141025171529 66 150 2.0 6.0 0.00 0.00 0.00 27 1024.6
20141025170529 66 123 2.0 5.0 0.00 0.00 0.00 29 1024.8
20141025165529 65 159 3.0 6.0 0.00 0.00 0.00 29 1025.0
20141025164529 65 169 2.0 3.0 0.00 0.00 0.00 29 1025.0
20141025163529 64 130 2.0 3.0 0.00 0.00 0.00 29 1025.0
20141025162530 64 103 2.0 3.0 0.00 0.00 0.00 31 1025.4
20141025161530 63 94 2.0 6.0 0.00 0.00 0.00 30 1025.4
20141025160529 61 131 1.0 3.0 0.00 0.00 0.00 33 1025.6
20141025155531 60 171 1.0 3.0 0.00 0.00 0.00 34 1025.3
20141025154529 58 147 2.0 3.0 0.00 0.00 0.00 36 1025.6
20141025153529 56 114 1.0 3.0 0.00 0.00 0.00 41 1025.7
20141025152530 53 105 1.0 3.0 0.00 0.00 0.00 45 1025.7
20141025151529 50 130 1.0 3.0 0.00 0.00 0.00 49 1025.6
20141025150529 47 121 2.0 3.0 0.00 0.00 0.00 52 1025.7
20141025145529 44 145 0.0 2.0 0.00 0.00 0.00 61 1025.8
20141025144529 42 146 0.0 1.0 0.00 0.00 0.00 69 1025.7
20141025143529 40 146 0.0 2.0 0.00 0.00 0.00 75 1025.7
20141025142530 38 174 1.0 2.0 0.00 0.00 0.00 82 1025.3
20141025141529 37 236 0.0 2.0 0.00 0.00 0.00 81 1025.1
20141025140529 37 236 1.0 2.0 0.00 0.00 0.00 78 1024.7
20141025135529 37 236 1.0 2.0 0.00 0.00 0.00 77 1024.9
20141025134528 37 236 0.0 2.0 0.00 0.00 0.00 76 1024.8
20141025133529 37 236 1.0 2.0 0.00 0.00 0.00 75 1024.6
20141025132530 37 236 1.0 3.0 0.00 0.00 0.00 74 1024.6
20141025131530 38 236 0.0 1.0 0.00 0.00 0.00 74 1024.6
20141025130530 38 236 0.0 1.0 0.00 0.00 0.00 73 1024.4
20141025125529 38 236 1.0 1.0 0.00 0.00 0.00 71 1024.3
20141025124530 38 236 0.0 2.0 0.00 0.00 0.00 71 1024.1
20141025123529 39 236 1.0 2.0 0.00 0.00 0.00 70 1024.2
20141025122529 39 236 0.0 2.0 0.00 0.00 0.00 69 1024.1
20141025121529 39 236 1.0 2.0 0.00 0.00 0.00 67 1024.0
20141025120531 39 236 2.0 3.0 0.00 0.00 0.00 66 1024.1
20141025115529 39 19 1.0 2.0 0.00 0.00 0.00 65 1024.2
20141025114529 40 19 1.0 1.0 0.00 0.00 0.00 65 1024.2
20141025113530 40 19 0.0 2.0 0.00 0.00 0.00 64 1024.2
20141025112530 40 19 1.0 2.0 0.00 0.00 0.00 64 1024.2
20141025111529 40 19 1.0 2.0 0.00 0.00 0.00 63 1024.0
20141025110529 40 5 2.0 3.0 0.00 0.00 0.00 63 1023.9
20141025105529 40 250 0.0 2.0 0.00 0.00 0.00 62 1023.6
20141025104529 41 250 1.0 2.0 0.00 0.00 0.00 62 1023.6
20141025103529 41 250 1.0 2.0 0.00 0.00 0.00 61 1023.6
20141025102528 41 250 1.0 2.0 0.00 0.00 0.00 61 1023.7
20141025101529 41 250 0.0 2.0 0.00 0.00 0.00 62 1023.7
20141025100529 41 290 1.0 3.0 0.00 0.00 0.00 62 1023.7
20141025095529 41 276 0.0 2.0 0.00 0.00 0.00 63 1023.6
20141025094529 41 275 1.0 3.0 0.00 0.00 0.00 63 1023.4
20141025093529 42 277 2.0 3.0 0.00 0.00 0.00 63 1023.8
20141025092529 42 263 2.0 3.0 0.00 0.00 0.00 64 1023.9
20141025091529 42 263 0.0 1.0 0.00 0.00 0.00 64 1023.9
20141025090529 43 263 0.0 3.0 0.00 0.00 0.00 63 1023.9
20141025085529 43 181 1.0 2.0 0.00 0.00 0.00 64 1023.7
20141025084529 43 181 1.0 2.0 0.00 0.00 0.00 63 1023.9
20141025083529 44 181 1.0 3.0 0.00 0.00 0.00 58 1023.8
20141025082529 44 181 1.0 3.0 0.00 0.00 0.00 58 1023.9
20141025081528 44 135 0.0 2.0 0.00 0.00 0.00 57 1023.9
20141025080529 45 135 1.0 2.0 0.00 0.00 0.00 56 1023.8
20141025075529 45 135 1.0 2.0 0.00 0.00 0.00 56 1023.8
20141025074529 46 135 1.0 2.0 0.00 0.00 0.00 55 1023.7
20141025073530 46 135 1.0 2.0 0.00 0.00 0.00 54 1023.7
20141025072530 46 135 2.0 3.0 0.00 0.00 0.00 54 1023.5
20141025071529 47 33 1.0 2.0 0.00 0.00 0.00 53 1023.3
20141025070529 47 33 0.0 3.0 0.00 0.00 0.00 52 1023.4
20141025065531 47 33 1.0 3.0 0.00 0.00 0.00 53 1023.4
20141025064530 47 4 4.0 7.0 0.00 0.00 0.00 53 1023.3
20141025063529 48 225 1.0 3.0 0.00 0.00 0.00 53 1023.5
20141025062529 48 51 1.0 3.0 0.00 0.00 0.00 52 1023.7
20141025061515 48 51 0.0 3.0 0.00 0.00 0.00 52 1023.7
20141025060529 48 74 1.0 3.0 0.00 0.00 0.00 52 1023.8
20141025055529 48 85 1.0 3.0 0.00 0.00 0.00 55 1023.7
20141025054528 48 161 1.0 2.0 0.00 0.00 0.00 57 1023.7
20141025053529 49 161 0.0 2.0 0.00 0.00 0.00 56 1023.7
20141025052530 49 161 1.0 2.0 0.00 0.00 0.00 54 1023.7
20141025051529 49 160 1.0 5.0 0.00 0.00 0.00 51 1023.8
20141025050528 50 277 1.0 2.0 0.00 0.00 0.00 51 1023.7
20141025045529 50 277 1.0 2.0 0.00 0.00 0.00 53 1023.9
20141025044529 51 277 1.0 2.0 0.00 0.00 0.00 54 1023.8
20141025043529 51 277 1.0 2.0 0.00 0.00 0.00 52 1023.8
20141025042529 52 277 1.0 2.0 0.00 0.00 0.00 51 1023.8
20141025041529 52 277 1.0 2.0 0.00 0.00 0.00 48 1023.8
20141025040529 53 277 1.0 1.0 0.00 0.00 0.00 44 1023.7
20141025035529 53 277 0.0 1.0 0.00 0.00 0.00 43 1023.7
20141025034529 54 277 0.0 1.0 0.00 0.00 0.00 44 1023.7
20141025033529 55 277 0.0 1.0 0.00 0.00 0.00 41 1023.7
20141025032529 55 277 0.0 1.0 0.00 0.00 0.00 42 1023.5
20141025031529 56 277 0.0 1.0 0.00 0.00 0.00 42 1023.5
20141025030529 57 277 0.0 2.0 0.00 0.00 0.00 41 1023.4
20141025025529 58 277 0.0 2.0 0.00 0.00 0.00 39 1023.5
20141025024529 58 277 0.0 1.0 0.00 0.00 0.00 37 1023.3
20141025023529 59 277 1.0 2.0 0.00 0.00 0.00 35 1023.1
20141025022528 59 277 0.0 3.0 0.00 0.00 0.00 34 1023.0
20141025021528 60 293 0.0 3.0 0.00 0.00 0.00 33 1023.0
20141025020529 60 293 1.0 5.0 0.00 0.00 0.00 32 1022.9
20141025015528 61 299 2.0 3.0 0.00 0.00 0.00 35 1022.9
20141025014528 62 294 2.0 3.0 0.00 0.00 0.00 37 1022.7
20141025013529 63 275 2.0 3.0 0.00 0.00 0.00 38 1022.7
20141025012528 64 12 0.0 1.0 0.00 0.00 0.00 31 1022.6
20141025011528 65 12 0.0 2.0 0.00 0.00 0.00 29 1022.5
20141025010528 66 12 1.0 2.0 0.00 0.00 0.00 29 1022.6
20141025005528 67 20 1.0 2.0 0.00 0.00 0.00 28 1022.5
20141025004529 68 20 1.0 3.0 0.00 0.00 0.00 27 1022.4
20141025003528 70 23 1.0 2.0 0.00 0.00 0.00 25 1022.1
20141025002529 71 23 1.0 2.0 0.00 0.00 0.00 24 1021.9
20141025001528 73 23 0.0 1.0 0.00 0.00 0.00 22 1021.8
20141025000528 74 23 0.0 2.0 0.00 0.00 0.00 21 1021.6
20141024235529 75 21 1.0 3.0 0.00 0.00 0.00 19 1021.3
20141024234529 76 10 2.0 3.0 0.00 0.00 0.00 18 1021.3
20141024233529 76 22 1.0 3.0 0.00 0.00 0.00 17 1021.2
20141024232528 77 22 1.0 3.0 0.00 0.00 0.00 17 1021.2
20141024231528 78 34 1.0 3.0 0.00 0.00 0.00 16 1021.0
20141024230528 78 20 4.0 8.0 0.00 0.00 0.00 15 1020.8
20141024225528 79 90 2.0 3.0 0.00 0.00 0.00 15 1020.9
20141024224529 79 1 1.0 5.0 0.00 0.00 0.00 14 1020.7
20141024223528 80 107 3.0 7.0 0.00 0.00 0.00 14 1020.8
20141024222529 80 89 4.0 7.0 0.00 0.00 0.00 13 1021.0
20141024221528 81 110 4.0 9.0 0.00 0.00 0.00 14 1020.9
20141024220528 81 67 2.0 9.0 0.00 0.00 0.00 15 1020.7